#�ϑ�����,���ϕ���,���ϕ���,�ő啗��,�ő啗����������,�ő�u�ԕ���,�ő�u�ԕ�����������
#(�N����),(m/s)   ,(16����),(m/s)   ,(16����)        ,(m/s)       ,(16����)            
2017/1/5 0:01,2.3,2,2.4,16,3.9,15
2017/1/5 0:02,2.1,2,2.3,16,3.6,16
2017/1/5 0:03,1.8,2,2.1,16,2.1,3
2017/1/5 0:04,1.8,2,1.8,16,3.2,16
2017/1/5 0:05,1.7,2,1.8,16,4.2,16
2017/1/5 0:06,1.8,1,1.8,16,3.7,1
2017/1/5 0:07,1.9,1,1.9,1,3.9,1
2017/1/5 0:08,2,1,2,1,5.4,16
2017/1/5 0:09,2.2,1,2.2,2,6.1,16
2017/1/5 0:10,2.5,1,2.5,1,6.1,16
2017/1/5 0:11,2.7,1,2.7,1,5.6,16
2017/1/5 0:12,2.7,1,2.7,1,4.5,1
2017/1/5 0:13,2.7,1,2.7,1,4.5,1
2017/1/5 0:14,2.6,1,2.7,1,2.6,16
2017/1/5 0:15,2.6,1,2.6,1,3.2,16
2017/1/5 0:16,2.8,1,2.8,1,7.1,16
2017/1/5 0:17,2.8,16,2.8,1,4.3,16
2017/1/5 0:18,2.8,16,2.8,1,4.1,2
2017/1/5 0:19,2.8,16,2.8,1,5.1,1
2017/1/5 0:20,2.5,1,2.7,1,3.5,1
2017/1/5 0:21,2.4,1,2.5,1,4.8,2
2017/1/5 0:22,2.3,1,2.4,1,3.1,1
2017/1/5 0:23,2.4,1,2.4,1,2.2,16
2017/1/5 0:24,2.4,16,2.4,1,1.9,16
2017/1/5 0:25,2.3,1,2.4,1,2.5,16
2017/1/5 0:26,2.2,1,2.3,16,3.7,2
2017/1/5 0:27,2.1,1,2.2,16,3.2,16
2017/1/5 0:28,2,1,2.1,16,2.4,1
2017/1/5 0:29,1.8,1,2,16,2,1
2017/1/5 0:30,1.8,1,1.8,1,2.9,2
2017/1/5 0:31,1.7,1,1.8,1,2.6,2
2017/1/5 0:32,1.7,1,1.7,1,2.7,3
2017/1/5 0:33,1.7,1,1.7,1,2.9,14
2017/1/5 0:34,1.8,1,1.8,16,4.2,16
2017/1/5 0:35,1.9,1,1.9,1,3.5,16
2017/1/5 0:36,1.8,1,1.9,1,3.2,16
2017/1/5 0:37,1.8,1,1.8,1,4.1,2
2017/1/5 0:38,2,1,2,1,5.1,1
2017/1/5 0:39,2.2,1,2.2,1,5.4,1
2017/1/5 0:40,2.6,1,2.6,1,9.1,2
2017/1/5 0:41,2.7,1,2.7,1,6.5,4
2017/1/5 0:42,2.9,1,2.9,1,4.8,16
2017/1/5 0:43,3,1,3,1,4.5,16
2017/1/5 0:44,2.9,1,3.1,1,3.5,16
2017/1/5 0:45,2.8,1,2.9,1,1.8,1
2017/1/5 0:46,2.8,1,2.9,1,2.7,16
2017/1/5 0:47,2.7,1,2.8,1,1.5,16
2017/1/5 0:48,2.4,1,2.7,1,1.3,16
2017/1/5 0:49,2.2,1,2.4,1,2.9,4
2017/1/5 0:50,1.9,1,2.2,1,3.9,6
2017/1/5 0:51,1.7,1,1.9,1,2.4,4
2017/1/5 0:52,1.6,1,1.7,1,3,15
2017/1/5 0:53,1.5,1,1.6,1,3.3,16
2017/1/5 0:54,1.4,1,1.5,1,3.5,1
2017/1/5 0:55,1.7,1,1.7,1,6.8,1
2017/1/5 0:56,1.8,1,1.8,1,4.3,2
2017/1/5 0:57,1.8,1,1.8,1,2.4,4
2017/1/5 0:58,2.1,1,2.1,1,3.9,16
2017/1/5 0:59,2.2,1,2.2,1,4.1,16
2017/1/5 1:00,2.1,1,2.2,1,3.2,15
2017/1/5 1:01,2.1,16,2.1,1,2.6,1
2017/1/5 1:02,2.1,1,2.1,1,3.2,3
2017/1/5 1:03,2.1,1,2.1,1,4.5,2
2017/1/5 1:04,2.1,1,2.2,1,3.2,4
2017/1/5 1:05,1.9,1,2.1,1,1.8,2
2017/1/5 1:06,1.9,1,1.9,1,4.1,1
2017/1/5 1:07,2,1,2,1,4.2,16
2017/1/5 1:08,2,2,2,1,5.8,3
2017/1/5 1:09,2.1,2,2.1,1,4.5,1
2017/1/5 1:10,2.2,2,2.2,1,4.9,2
2017/1/5 1:11,2.2,2,2.2,1,2.5,1
2017/1/5 1:12,2.1,2,2.2,1,1.6,1
2017/1/5 1:13,1.9,2,2,1,2.4,16
2017/1/5 1:14,1.8,1,1.9,2,1.8,2
2017/1/5 1:15,1.8,1,1.8,2,3.6,16
2017/1/5 1:16,1.7,1,1.8,2,3.5,2
2017/1/5 1:17,1.8,1,1.8,2,2.6,14
2017/1/5 1:18,1.6,1,1.7,2,2.5,15
2017/1/5 1:19,1.4,16,1.6,2,1.8,14
2017/1/5 1:20,1.4,16,1.4,2,2.6,13
2017/1/5 1:21,1.4,16,1.4,2,3.2,12
2017/1/5 1:22,1.6,15,1.6,2,4.1,15
2017/1/5 1:23,2,15,2,15,7.7,16
2017/1/5 1:24,2.1,15,2.1,15,5,16
2017/1/5 1:25,2.3,15,2.3,15,5.2,16
2017/1/5 1:26,2.5,15,2.5,15,6.8,16
2017/1/5 1:27,2.8,15,2.8,15,7.1,14
2017/1/5 1:28,2.9,15,2.9,15,5.7,15
2017/1/5 1:29,3,15,3,15,3.2,16
2017/1/5 1:30,3,15,3,15,3.1,16
2017/1/5 1:31,3,16,3,15,3.1,16
2017/1/5 1:32,3,16,3.1,16,2.7,1
2017/1/5 1:33,2.8,16,3,16,3.2,16
2017/1/5 1:34,2.6,16,2.7,16,2.1,16
2017/1/5 1:35,2.6,16,2.6,16,4.5,16
2017/1/5 1:36,2.4,16,2.5,16,4.4,1
2017/1/5 1:37,2.1,16,2.4,16,2.1,3
2017/1/5 1:38,1.9,1,2.1,16,2.1,3
2017/1/5 1:39,1.7,1,1.9,16,1.1,5
2017/1/5 1:40,1.7,1,1.7,16,3.2,16
2017/1/5 1:41,1.7,1,1.7,16,4.1,16
2017/1/5 1:42,1.7,1,1.7,16,3.1,1
2017/1/5 1:43,1.5,1,1.7,16,1.3,16
2017/1/5 1:44,1.5,1,1.5,16,2.5,15
2017/1/5 1:45,1.5,16,1.6,16,3.7,16
2017/1/5 1:46,1.5,16,1.5,16,3.6,16
2017/1/5 1:47,1.7,16,1.7,16,4.8,1
2017/1/5 1:48,1.8,16,1.8,1,3.7,15
2017/1/5 1:49,2,16,2,16,4.7,16
2017/1/5 1:50,2,16,2,16,4.5,16
2017/1/5 1:51,2,16,2.1,16,3.9,16
2017/1/5 1:52,2.1,16,2.1,16,2.7,1
2017/1/5 1:53,2.1,16,2.1,16,1.8,2
2017/1/5 1:54,2.2,16,2.2,16,2.7,16
2017/1/5 1:55,2,1,2.1,16,3.6,2
2017/1/5 1:56,2,1,2,16,3.5,1
2017/1/5 1:57,2.1,1,2.1,16,4.5,1
2017/1/5 1:58,2,1,2.1,16,3.7,16
2017/1/5 1:59,2.1,1,2.1,16,8.3,2
2017/1/5 2:00,2.3,1,2.3,1,6.2,2
2017/1/5 2:01,2.3,1,2.3,1,5.8,2
2017/1/5 2:02,2.4,1,2.4,1,2.9,15
2017/1/5 2:03,2.4,1,2.4,1,3,16
2017/1/5 2:04,2.3,1,2.4,1,1,4
2017/1/5 2:05,2.3,1,2.3,1,2.5,6
2017/1/5 2:06,2.3,1,2.3,1,2.9,1
2017/1/5 2:07,2.2,2,2.3,1,4.3,1
2017/1/5 2:08,2.2,2,2.2,1,3.7,2
2017/1/5 2:09,2.3,2,2.4,1,7.9,4
2017/1/5 2:10,2.5,2,2.5,2,9.2,16
2017/1/5 2:11,2.7,3,2.7,3,9.1,3
2017/1/5 2:12,2.9,3,2.9,3,8.5,3
2017/1/5 2:13,3.1,3,3.1,3,7.9,3
2017/1/5 2:14,3.6,3,3.6,3,9.1,3
2017/1/5 2:15,4.1,3,4.1,3,11.3,3
2017/1/5 2:16,4.3,3,4.3,3,5.7,2
2017/1/5 2:17,4.3,3,4.3,3,6.3,1
2017/1/5 2:18,4.7,2,4.7,2,11.4,2
2017/1/5 2:19,4.8,2,4.9,2,9.8,2
2017/1/5 2:20,4.5,2,4.8,2,6.8,1
2017/1/5 2:21,4.2,2,4.5,2,5.6,16
2017/1/5 2:22,4.3,2,4.3,2,6.9,15
2017/1/5 2:23,4.3,2,4.4,2,5.4,1
2017/1/5 2:24,4.1,2,4.3,2,5.8,3
2017/1/5 2:25,3.6,2,4,2,4.9,4
2017/1/5 2:26,3.7,1,3.7,2,7,1
2017/1/5 2:27,3.8,1,3.8,2,9.1,1
2017/1/5 2:28,3.5,1,3.8,2,5.8,15
2017/1/5 2:29,3.5,1,3.5,2,8.1,15
2017/1/5 2:30,3.8,1,3.8,2,7.1,15
2017/1/5 2:31,3.7,1,3.8,2,4.3,14
2017/1/5 2:32,3.4,1,3.7,2,3.2,16
2017/1/5 2:33,3.2,1,3.4,2,3.5,16
2017/1/5 2:34,3.2,1,3.2,2,4.9,3
2017/1/5 2:35,3.5,1,3.5,1,9.3,3
2017/1/5 2:36,3.7,1,3.7,1,9.2,3
2017/1/5 2:37,3.7,1,3.7,1,7.1,2
2017/1/5 2:38,3.8,1,3.8,1,6.2,16
2017/1/5 2:39,3.5,1,3.8,1,4.2,15
2017/1/5 2:40,3.3,1,3.5,1,6.1,14
2017/1/5 2:41,3.6,1,3.6,1,6.7,15
2017/1/5 2:42,3.7,1,3.7,1,6,15
2017/1/5 2:43,4,1,4,1,7.7,15
2017/1/5 2:44,4.1,16,4.1,16,9.4,15
2017/1/5 2:45,4,16,4.1,16,7.2,15
2017/1/5 2:46,3.9,16,4,16,8.2,14
2017/1/5 2:47,4,16,4,16,9,16
2017/1/5 2:48,4.2,16,4.2,15,9,15
2017/1/5 2:49,4.3,16,4.3,15,6.3,15
2017/1/5 2:50,4.4,16,4.5,16,8.5,16
2017/1/5 2:51,4.8,16,4.8,16,11.9,15
2017/1/5 2:52,5.1,16,5.1,16,12.5,16
2017/1/5 2:53,5,16,5.1,16,5.1,1
2017/1/5 2:54,4.9,16,5,16,5.1,2
2017/1/5 2:55,4.7,16,4.8,16,4.9,16
2017/1/5 2:56,4.5,16,4.6,16,4.3,2
2017/1/5 2:57,4.5,1,4.5,16,7.5,1
2017/1/5 2:58,4.4,1,4.4,16,8.3,16
2017/1/5 2:59,4.4,1,4.5,16,10.2,2
2017/1/5 3:00,4.2,1,4.4,16,3.6,16
2017/1/5 3:01,3.8,2,4.2,16,5.1,2
2017/1/5 3:02,3.4,2,3.7,16,3.8,2
2017/1/5 3:03,3.1,2,3.3,16,3,16
2017/1/5 3:04,3.1,2,3.1,16,4.4,15
2017/1/5 3:05,3.2,2,3.2,16,5.7,16
2017/1/5 3:06,3.3,2,3.3,1,6.1,16
2017/1/5 3:07,2.9,1,3.3,1,4.3,8
2017/1/5 3:08,2.6,1,2.9,1,4.1,15
2017/1/5 3:09,2.5,1,2.6,1,4.7,15
2017/1/5 3:10,2.6,16,2.6,1,4.2,16
2017/1/5 3:11,2.6,16,2.6,2,4.2,16
2017/1/5 3:12,2.6,16,2.6,2,3.8,2
2017/1/5 3:13,2.6,16,2.6,2,3.2,3
2017/1/5 3:14,2.4,16,2.6,2,2.6,15
2017/1/5 3:15,2.1,16,2.4,2,1.8,1
2017/1/5 3:16,2,16,2.1,2,3.5,16
2017/1/5 3:17,2,16,2,1,2.7,16
2017/1/5 3:18,2,1,2,1,3,16
2017/1/5 3:19,1.8,1,2,1,2.9,13
2017/1/5 3:20,1.7,16,1.8,16,2.9,14
2017/1/5 3:21,1.7,16,1.8,16,5.6,16
2017/1/5 3:22,1.8,16,1.8,16,5,1
2017/1/5 3:23,1.8,16,1.8,16,5.8,16
2017/1/5 3:24,2,16,2,16,3.9,3
2017/1/5 3:25,2.3,16,2.3,16,5.6,3
2017/1/5 3:26,2.4,16,2.4,16,4.9,1
2017/1/5 3:27,2.5,16,2.5,16,4.9,16
2017/1/5 3:28,2.5,16,2.5,16,3.6,15
2017/1/5 3:29,2.4,16,2.5,16,1.1,16
2017/1/5 3:30,2.3,1,2.4,16,2.2,16
2017/1/5 3:31,2.1,1,2.3,16,2.5,2
2017/1/5 3:32,1.9,1,2.1,16,1.1,2
2017/1/5 3:33,1.7,1,1.9,16,1.3,2
2017/1/5 3:34,1.5,1,1.7,16,0.8,7
2017/1/5 3:35,1.2,16,1.5,16,0.6,12
2017/1/5 3:36,1,16,1.1,16,1.8,10
2017/1/5 3:37,0.7,15,1,16,1.5,10
2017/1/5 3:38,0.7,14,0.7,16,1.8,12
2017/1/5 3:39,0.8,13,0.8,16,2.7,13
2017/1/5 3:40,0.8,12,0.9,1,1.3,14
2017/1/5 3:41,0.7,12,0.8,1,0.9,16
2017/1/5 3:42,0.7,12,0.7,1,0.6,14
2017/1/5 3:43,0.8,13,0.8,1,2.1,15
2017/1/5 3:44,0.9,13,0.9,1,3.7,15
2017/1/5 3:45,1,13,1,16,3,14
2017/1/5 3:46,1.2,14,1.2,13,4.5,15
2017/1/5 3:47,1.4,14,1.4,14,5.4,15
2017/1/5 3:48,1.7,14,1.7,14,6.7,16
2017/1/5 3:49,1.8,15,1.8,15,4.5,1
2017/1/5 3:50,2.3,15,2.3,15,8.9,1
2017/1/5 3:51,2.6,15,2.6,15,6.8,14
2017/1/5 3:52,3,15,3,15,8.2,16
2017/1/5 3:53,3.2,15,3.2,15,5.1,15
2017/1/5 3:54,3.3,15,3.3,15,5.7,15
2017/1/5 3:55,3.5,15,3.5,15,4.9,14
2017/1/5 3:56,3.3,15,3.4,15,1.9,10
2017/1/5 3:57,3.5,15,3.5,15,7.4,15
2017/1/5 3:58,3.6,15,3.6,15,8.1,15
2017/1/5 3:59,3.9,15,3.9,15,9.2,15
2017/1/5 4:00,3.8,15,3.9,15,8.3,14
2017/1/5 4:01,3.8,15,3.9,15,7.7,16
2017/1/5 4:02,3.6,15,3.8,15,4.4,15
2017/1/5 4:03,3.6,15,3.7,15,5.6,15
2017/1/5 4:04,3.6,15,3.7,15,5.8,15
2017/1/5 4:05,3.6,15,3.6,15,4.2,15
2017/1/5 4:06,4.1,15,4.1,15,10.8,15
2017/1/5 4:07,3.9,15,4.1,15,5.7,15
2017/1/5 4:08,3.8,15,3.9,15,6.5,1
2017/1/5 4:09,3.7,15,3.8,15,6.7,15
2017/1/5 4:10,3.4,15,3.6,15,3.1,14
2017/1/5 4:11,3.1,16,3.4,15,2.9,16
2017/1/5 4:12,3.1,16,3.2,15,4.3,14
2017/1/5 4:13,3.2,16,3.2,15,7.5,15
2017/1/5 4:14,3.3,16,3.3,15,6.9,16
2017/1/5 4:15,3.4,16,3.4,15,6.4,15
2017/1/5 4:16,3.3,16,3.4,15,8.1,15
2017/1/5 4:17,3.5,16,3.5,15,9.5,16
2017/1/5 4:18,3.3,16,3.5,15,4.1,2
2017/1/5 4:19,3.3,16,3.3,15,9,15
2017/1/5 4:20,3.6,16,3.6,16,9.7,15
2017/1/5 4:21,3.9,15,3.9,15,7.4,16
2017/1/5 4:22,4.1,15,4.1,15,6.5,16
2017/1/5 4:23,3.8,15,4.1,15,4.4,15
2017/1/5 4:24,3.7,15,3.8,15,6.8,16
2017/1/5 4:25,3.6,16,3.7,15,5.6,16
2017/1/5 4:26,3.4,16,3.6,15,5.8,2
2017/1/5 4:27,3.3,16,3.4,15,5.6,16
2017/1/5 4:28,3.5,15,3.5,15,8.4,15
2017/1/5 4:29,3.4,15,3.5,15,9.1,15
2017/1/5 4:30,3.7,15,3.7,15,13.6,14
2017/1/5 4:31,3.5,15,3.7,15,10.7,16
2017/1/5 4:32,3.6,15,3.6,15,7.4,16
2017/1/5 4:33,4.1,15,4.1,15,11.6,15
2017/1/5 4:34,4.5,15,4.5,15,12.7,16
2017/1/5 4:35,4.6,15,4.6,15,7.1,15
2017/1/5 4:36,4.7,15,4.7,15,7.1,1
2017/1/5 4:37,4.8,15,4.8,15,7.4,15
2017/1/5 4:38,4.6,15,4.8,15,5.4,13
2017/1/5 4:39,4.9,15,4.9,15,8.9,16
2017/1/5 4:40,4.4,15,4.8,15,6,13
2017/1/5 4:41,4.6,15,4.6,15,10.1,15
2017/1/5 4:42,4.6,15,4.6,15,7.8,16
2017/1/5 4:43,4.5,15,4.7,15,10,15
2017/1/5 4:44,4.4,15,4.5,15,10.6,15
2017/1/5 4:45,4.7,15,4.7,15,10.7,15
2017/1/5 4:46,4.9,15,4.9,15,9.7,15
2017/1/5 4:47,5,15,5,15,7.7,16
2017/1/5 4:48,5.1,15,5.1,15,7.7,15
2017/1/5 4:49,4.9,15,5.1,15,4.8,16
2017/1/5 4:50,4.9,15,4.9,15,4.9,1
2017/1/5 4:51,4.8,16,4.9,15,4.4,1
2017/1/5 4:52,4.4,16,4.7,15,4.2,15
2017/1/5 4:53,4,16,4.4,15,3.2,15
2017/1/5 4:54,3.8,16,3.9,15,5.5,14
2017/1/5 4:55,3.4,16,3.7,15,4.2,15
2017/1/5 4:56,3,16,3.3,15,4.3,16
2017/1/5 4:57,3.1,16,3.1,15,8.9,15
2017/1/5 4:58,3.2,16,3.2,15,10.6,15
2017/1/5 4:59,3.4,16,3.4,15,8.3,15
2017/1/5 5:00,3.6,16,3.6,15,8.7,15
2017/1/5 5:01,3.9,16,3.9,16,10,16
2017/1/5 5:02,4.3,16,4.3,16,7.9,1
2017/1/5 5:03,4.5,16,4.5,16,6.7,14
2017/1/5 5:04,4.5,16,4.6,16,7,14
2017/1/5 5:05,4.7,16,4.7,16,7.2,1
2017/1/5 5:06,4.9,16,4.9,16,11,15
2017/1/5 5:07,5.1,16,5.1,16,10,15
2017/1/5 5:08,5.1,16,5.1,16,9.4,16
2017/1/5 5:09,4.9,16,5.1,16,5.8,15
2017/1/5 5:10,4.9,16,4.9,16,8.9,15
2017/1/5 5:11,4.7,16,4.9,16,6.9,16
2017/1/5 5:12,4.6,16,4.7,16,7.6,16
2017/1/5 5:13,4.7,16,4.7,16,6.8,16
2017/1/5 5:14,4.5,16,4.6,16,4.2,16
2017/1/5 5:15,4.6,16,4.6,16,9.8,16
2017/1/5 5:16,4.5,16,4.6,16,6.3,1
2017/1/5 5:17,4.2,16,4.5,16,8.2,15
2017/1/5 5:18,3.9,16,4.2,16,5.8,14
2017/1/5 5:19,4.2,16,4.2,16,10.5,15
2017/1/5 5:20,4,16,4.3,16,8.2,16
2017/1/5 5:21,3.9,16,4,16,6.3,15
2017/1/5 5:22,3.8,16,3.9,16,7.2,16
2017/1/5 5:23,3.8,16,3.8,16,6.2,14
2017/1/5 5:24,4,16,4,16,7.8,14
2017/1/5 5:25,4,16,4,16,10,16
2017/1/5 5:26,4.2,15,4.2,16,10.1,15
2017/1/5 5:27,4.3,15,4.3,16,8.3,16
2017/1/5 5:28,4.4,15,4.4,15,7.4,2
2017/1/5 5:29,4.6,15,4.6,15,9.9,15
2017/1/5 5:30,4.5,15,4.5,15,6.3,14
2017/1/5 5:31,4.7,15,4.7,15,6.7,16
2017/1/5 5:32,4.6,15,4.7,15,5.7,16
2017/1/5 5:33,4.4,16,4.6,15,4.5,1
2017/1/5 5:34,4.6,16,4.7,15,11.4,3
2017/1/5 5:35,4.5,16,4.7,15,7,2
2017/1/5 5:36,4.2,16,4.4,15,4.7,16
2017/1/5 5:37,3.9,1,4.2,15,5,3
2017/1/5 5:38,3.7,1,3.9,15,3.7,11
2017/1/5 5:39,3.2,1,3.7,15,3.3,15
2017/1/5 5:40,3.1,1,3.2,15,6.8,16
2017/1/5 5:41,2.9,1,3.1,15,4.7,1
2017/1/5 5:42,2.7,1,2.9,16,3.5,16
2017/1/5 5:43,2.7,16,2.7,16,3.9,16
2017/1/5 5:44,2.3,16,2.7,16,4.2,1
2017/1/5 5:45,2.4,16,2.4,16,6.3,2
2017/1/5 5:46,2.3,16,2.4,16,4.2,16
2017/1/5 5:47,2.4,16,2.4,1,3.7,15
2017/1/5 5:48,2.6,16,2.6,1,7.6,15
2017/1/5 5:49,2.8,16,2.8,1,7.8,6
2017/1/5 5:50,2.8,1,2.9,1,7.7,6
2017/1/5 5:51,2.9,1,2.9,1,5,15
2017/1/5 5:52,2.9,1,2.9,1,2.7,11
2017/1/5 5:53,3,16,3,16,7,16
2017/1/5 5:54,3,16,3.1,16,4.7,13
2017/1/5 5:55,2.9,16,3,16,4.2,3
2017/1/5 5:56,3.2,16,3.2,16,8.9,16
2017/1/5 5:57,3.1,16,3.2,16,5.2,15
2017/1/5 5:58,2.8,16,3.1,16,3.2,1
2017/1/5 5:59,2.5,16,2.8,16,1.4,14
2017/1/5 6:00,2.3,16,2.5,16,2.2,16
2017/1/5 6:01,2.1,16,2.2,16,2.2,15
2017/1/5 6:02,2.2,16,2.2,16,3.6,15
2017/1/5 6:03,2.2,1,2.2,16,6.4,16
2017/1/5 6:04,2.1,1,2.2,16,3.7,2
2017/1/5 6:05,1.9,1,2.1,16,1.8,16
2017/1/5 6:06,1.7,1,1.9,16,6,14
2017/1/5 6:07,1.9,1,1.9,16,6.7,16
2017/1/5 6:08,2.1,1,2.1,16,7.1,16
2017/1/5 6:09,2.5,16,2.5,16,7.1,16
2017/1/5 6:10,2.9,16,2.9,16,9.3,15
2017/1/5 6:11,3.3,16,3.3,16,9.2,15
2017/1/5 6:12,3.7,16,3.7,16,10.1,15
2017/1/5 6:13,3.8,16,3.8,16,7.8,16
2017/1/5 6:14,4,16,4,16,8.4,16
2017/1/5 6:15,4.3,15,4.3,15,7.7,16
2017/1/5 6:16,4.6,15,4.6,15,10.1,15
2017/1/5 6:17,4.5,15,4.5,15,6.9,14
2017/1/5 6:18,5,15,5,15,13.1,15
2017/1/5 6:19,5.2,15,5.2,15,11.1,15
2017/1/5 6:20,5.3,15,5.4,15,12.2,14
2017/1/5 6:21,5.3,15,5.3,15,11.6,14
2017/1/5 6:22,5.3,15,5.4,15,11.6,14
2017/1/5 6:23,5.1,15,5.3,15,8.4,15
2017/1/5 6:24,4.9,15,5.1,15,4.3,16
2017/1/5 6:25,4.9,15,5,15,6.9,1
2017/1/5 6:26,4.8,15,4.9,15,7,15
2017/1/5 6:27,4.6,15,4.9,15,6.4,15
2017/1/5 6:28,4.3,16,4.6,15,7.4,1
2017/1/5 6:29,4,16,4.3,15,10.7,16
2017/1/5 6:30,3.7,16,4,15,5,3
2017/1/5 6:31,3.5,1,3.7,15,5,4
2017/1/5 6:32,3.2,1,3.4,15,6.4,11
2017/1/5 6:33,3.3,1,3.3,15,7.2,12
2017/1/5 6:34,3.3,1,3.3,15,4.7,14
2017/1/5 6:35,3.2,1,3.3,15,4.2,2
2017/1/5 6:36,2.9,1,3.2,15,3.5,1
2017/1/5 6:37,3,1,3,15,3.9,14
2017/1/5 6:38,2.9,16,3.1,16,5.2,16
2017/1/5 6:39,2.6,16,2.8,16,5.4,14
2017/1/5 6:40,2.5,15,2.6,1,4.1,13
2017/1/5 6:41,2.6,14,2.6,1,5.8,14
2017/1/5 6:42,2.5,14,2.6,1,3.7,12
2017/1/5 6:43,2.3,15,2.4,1,2.1,2
2017/1/5 6:44,2.2,15,2.2,1,4.2,3
2017/1/5 6:45,2.2,15,2.3,1,4.1,3
2017/1/5 6:46,2.1,16,2.2,1,1.8,5
2017/1/5 6:47,2,16,2.1,1,2.1,11
2017/1/5 6:48,1.8,16,2,16,1.6,1
2017/1/5 6:49,1.6,16,1.8,16,2,16
2017/1/5 6:50,1.5,1,1.6,14,1.3,1
2017/1/5 6:51,1.3,1,1.5,14,2.2,15
2017/1/5 6:52,1.3,1,1.3,14,4.3,10
2017/1/5 6:53,1.3,1,1.4,15,4.9,8
2017/1/5 6:54,1.3,16,1.4,15,3.8,9
2017/1/5 6:55,1.3,14,1.4,15,3.2,10
2017/1/5 6:56,1.3,14,1.3,16,1.4,1
2017/1/5 6:57,1.4,15,1.4,16,3.5,16
2017/1/5 6:58,1.4,15,1.4,16,1.5,15
2017/1/5 6:59,1.3,14,1.4,16,0.9,6
2017/1/5 7:00,1.4,11,1.4,1,4.2,10
2017/1/5 7:01,1.5,9,1.5,11,2.7,9
2017/1/5 7:02,1.3,7,1.5,11,1.3,6
2017/1/5 7:03,1.3,6,1.3,11,1.5,4
2017/1/5 7:04,1.2,5,1.3,11,4.9,7
2017/1/5 7:05,1.3,4,1.3,11,6.2,3
2017/1/5 7:06,1.4,5,1.4,11,4.4,2
2017/1/5 7:07,1.4,5,1.4,11,5.6,13
2017/1/5 7:08,1.5,6,1.5,11,2.7,14
2017/1/5 7:09,1.6,7,1.6,7,3.2,14
2017/1/5 7:10,1.7,5,1.7,6,6.1,16
2017/1/5 7:11,1.9,3,1.9,4,5.2,14
2017/1/5 7:12,2.1,16,2.1,1,7.5,16
2017/1/5 7:13,2.5,15,2.5,15,6.3,15
2017/1/5 7:14,2.7,15,2.7,15,7,15
2017/1/5 7:15,2.8,15,2.8,15,5.2,2
2017/1/5 7:16,2.7,15,2.8,15,2.1,2
2017/1/5 7:17,2.5,15,2.7,15,2.4,14
2017/1/5 7:18,2.7,15,2.7,15,3.6,12
2017/1/5 7:19,2.9,14,2.9,14,6.9,11
2017/1/5 7:20,2.8,14,2.9,14,5.4,11
2017/1/5 7:21,2.8,15,2.8,14,5.8,16
2017/1/5 7:22,2.9,15,2.9,14,7.2,16
2017/1/5 7:23,2.7,15,2.9,14,5.7,16
2017/1/5 7:24,2.4,15,2.6,14,3.8,4
2017/1/5 7:25,2.2,15,2.3,14,3.8,1
2017/1/5 7:26,2.3,15,2.3,14,2.2,15
2017/1/5 7:27,2.6,15,2.6,14,5.8,16
2017/1/5 7:28,2.7,16,2.7,14,4.7,16
2017/1/5 7:29,2.7,16,2.7,14,8.6,15
2017/1/5 7:30,3.2,16,3.2,16,9.3,15
2017/1/5 7:31,3.2,16,3.3,16,7.7,15
2017/1/5 7:32,3,16,3.2,16,5.2,15
2017/1/5 7:33,3.1,16,3.1,16,3.3,2
2017/1/5 7:34,3.1,16,3.1,16,3.2,16
2017/1/5 7:35,2.9,16,3,16,2.5,12
2017/1/5 7:36,3.1,16,3.1,16,6.3,16
2017/1/5 7:37,2.8,16,3,16,3.2,16
2017/1/5 7:38,2.9,16,2.9,16,5.7,15
2017/1/5 7:39,2.7,15,2.9,16,5,16
2017/1/5 7:40,2.7,15,2.7,16,11.8,15
2017/1/5 7:41,2.7,16,2.8,16,8.3,16
2017/1/5 7:42,2.8,15,2.8,16,5,14
2017/1/5 7:43,2.8,15,2.8,16,4.3,10
2017/1/5 7:44,3,14,3,16,5.4,13
2017/1/5 7:45,3.3,15,3.3,15,7,1
2017/1/5 7:46,3.3,14,3.3,15,6.1,15
2017/1/5 7:47,3.7,14,3.7,14,10.1,16
2017/1/5 7:48,3.8,15,3.8,15,7.6,14
2017/1/5 7:49,3.9,15,3.9,15,6.3,4
2017/1/5 7:50,3.5,15,3.8,15,5.1,6
2017/1/5 7:51,3.3,16,3.5,15,3.5,16
2017/1/5 7:52,3,16,3.3,15,0.9,13
2017/1/5 7:53,2.9,16,3,15,3.1,15
2017/1/5 7:54,2.7,16,2.9,15,3.3,9
2017/1/5 7:55,2.4,16,2.7,15,2.9,10
2017/1/5 7:56,2.3,16,2.4,15,3.3,10
2017/1/5 7:57,2.1,16,2.2,15,5.8,1
2017/1/5 7:58,2,16,2.2,15,6.1,14
2017/1/5 7:59,2,15,2,15,6.2,15
2017/1/5 8:00,1.9,15,2,16,4.5,2
2017/1/5 8:01,2.1,15,2.1,16,5,15
2017/1/5 8:02,2.3,15,2.3,15,6.2,16
2017/1/5 8:03,2.5,15,2.5,16,3.8,14
2017/1/5 8:04,2.5,15,2.5,16,2.9,11
2017/1/5 8:05,2.5,15,2.6,15,2.7,9
2017/1/5 8:06,2.6,15,2.6,15,4.8,1
2017/1/5 8:07,2.5,15,2.6,15,5.2,15
2017/1/5 8:08,2.3,15,2.5,15,3.7,15
2017/1/5 8:09,2.1,15,2.3,15,4.5,16
2017/1/5 8:10,2.1,15,2.1,15,4.4,7
2017/1/5 8:11,1.9,15,2.1,15,2.7,7
2017/1/5 8:12,1.8,16,2,15,3.8,2
2017/1/5 8:13,1.6,3,1.8,15,2.5,12
2017/1/5 8:14,1.6,2,1.6,15,2.9,13
2017/1/5 8:15,1.7,16,1.7,15,4.3,11
2017/1/5 8:16,1.7,16,1.8,15,3.2,16
2017/1/5 8:17,1.6,1,1.7,15,3.9,3
2017/1/5 8:18,1.6,3,1.6,15,2.1,6
2017/1/5 8:19,1.9,1,1.9,15,6.9,15
2017/1/5 8:20,2.2,16,2.2,16,8.4,15
2017/1/5 8:21,2.2,15,2.2,16,3.2,15
2017/1/5 8:22,2.4,15,2.4,15,7.1,15
2017/1/5 8:23,2.6,15,2.6,15,6.9,16
2017/1/5 8:24,2.6,16,2.6,15,2.2,1
2017/1/5 8:25,2.5,1,2.6,15,2.4,3
2017/1/5 8:26,2.4,1,2.5,15,1.8,4
2017/1/5 8:27,2.4,16,2.5,15,2.6,15
2017/1/5 8:28,2.5,16,2.5,15,4.8,9
2017/1/5 8:29,2.5,15,2.6,15,6.7,9
2017/1/5 8:30,2.4,14,2.5,15,4.4,12
2017/1/5 8:31,2.3,14,2.4,15,2.9,13
2017/1/5 8:32,2.3,14,2.4,15,4.8,14
2017/1/5 8:33,2.3,14,2.4,15,4.4,16
2017/1/5 8:34,2.3,13,2.3,16,3.6,12
2017/1/5 8:35,2.6,13,2.6,16,6.7,16
2017/1/5 8:36,3,13,3,13,7.5,16
2017/1/5 8:37,3.2,14,3.2,14,6.3,14
2017/1/5 8:38,3.3,14,3.3,14,5.8,15
2017/1/5 8:39,3,14,3.3,14,3.8,15
2017/1/5 8:40,2.9,14,3,14,5.1,12
2017/1/5 8:41,2.9,14,2.9,14,4.5,12
2017/1/5 8:42,2.7,15,2.8,14,4.3,1
2017/1/5 8:43,2.7,15,2.7,14,5.2,16
2017/1/5 8:44,2.9,15,2.9,14,6.5,16
2017/1/5 8:45,2.7,15,2.9,14,5.4,16
2017/1/5 8:46,2.9,15,2.9,14,11.8,15
2017/1/5 8:47,3,15,3,14,7.9,14
2017/1/5 8:48,3,15,3,14,10,14
2017/1/5 8:49,2.9,15,2.9,14,2,15
2017/1/5 8:50,2.9,15,2.9,15,3.5,7
2017/1/5 8:51,2.8,16,2.9,15,3.7,9
2017/1/5 8:52,2.8,16,2.9,15,1.8,2
2017/1/5 8:53,2.8,16,2.8,15,4.9,16
2017/1/5 8:54,2.6,1,2.8,15,4.9,16
2017/1/5 8:55,2.6,1,2.6,15,5.4,16
2017/1/5 8:56,2.4,1,2.6,15,7.5,14
2017/1/5 8:57,2.4,1,2.4,15,6.7,15
2017/1/5 8:58,2.6,16,2.6,15,9.5,15
2017/1/5 8:59,2.9,16,2.9,15,9.2,15
2017/1/5 9:00,3.2,16,3.2,16,8.9,15
2017/1/5 9:01,3.5,16,3.5,16,6.4,15
2017/1/5 9:02,4,16,4,16,9.3,15
2017/1/5 9:03,4.1,15,4.1,15,5.6,12
2017/1/5 9:04,4,15,4,15,5.1,13
2017/1/5 9:05,3.8,15,4,15,1.8,2
2017/1/5 9:06,3.5,15,3.8,15,2.9,4
2017/1/5 9:07,3.5,15,3.5,15,7.1,15
2017/1/5 9:08,3.4,15,3.5,15,8.5,15
2017/1/5 9:09,3.5,15,3.5,15,6.8,16
2017/1/5 9:10,3.4,15,3.5,15,7,16
2017/1/5 9:11,3.3,15,3.4,15,5.6,14
2017/1/5 9:12,3.3,15,3.3,15,11,15
2017/1/5 9:13,3.4,16,3.4,15,9.8,15
2017/1/5 9:14,3.6,16,3.6,15,6.4,15
2017/1/5 9:15,3.9,16,3.9,16,7.2,16
2017/1/5 9:16,4.3,15,4.3,15,10.1,14
2017/1/5 9:17,4.4,15,4.4,15,7.8,13
2017/1/5 9:18,4.4,15,4.4,15,9.3,16
2017/1/5 9:19,4.1,15,4.4,15,5.2,1
2017/1/5 9:20,3.9,15,4.1,15,2.7,1
2017/1/5 9:21,3.9,15,3.9,15,5,15
2017/1/5 9:22,3.4,15,3.9,15,5.1,12
2017/1/5 9:23,3.4,15,3.5,15,6.1,14
2017/1/5 9:24,3.4,15,3.4,15,6.2,14
2017/1/5 9:25,3.3,14,3.5,15,4.4,12
2017/1/5 9:26,2.9,14,3.3,15,3,8
2017/1/5 9:27,2.6,14,2.8,15,2.7,10
2017/1/5 9:28,2.6,14,2.6,15,10.5,15
2017/1/5 9:29,2.8,14,2.8,15,7.2,16
2017/1/5 9:30,3.3,14,3.3,15,11.1,15
2017/1/5 9:31,3.6,14,3.6,15,11.4,14
2017/1/5 9:32,4.2,14,4.2,14,12.5,15
2017/1/5 9:33,4.1,14,4.2,14,9.3,15
2017/1/5 9:34,4.1,14,4.1,14,10.6,11
2017/1/5 9:35,4.4,14,4.4,14,9.3,15
2017/1/5 9:36,4.8,15,4.8,15,9.1,15
2017/1/5 9:37,4.9,15,4.9,15,4.4,14
2017/1/5 9:38,4.6,15,4.9,15,7.4,16
2017/1/5 9:39,4.2,14,4.5,15,3.3,14
2017/1/5 9:40,3.9,14,4.2,15,2.5,13
2017/1/5 9:41,3.4,14,3.9,15,3.2,14
2017/1/5 9:42,3,14,3.3,15,4.4,13
2017/1/5 9:43,3,14,3,15,7.2,10
2017/1/5 9:44,3.1,14,3.2,15,7.2,16
2017/1/5 9:45,2.8,14,3.1,15,6.3,15
2017/1/5 9:46,2.6,14,2.8,15,4.1,15
2017/1/5 9:47,2.5,14,2.5,15,2,16
2017/1/5 9:48,2.8,14,2.8,15,11.3,15
2017/1/5 9:49,2.8,15,2.8,15,6.2,16
2017/1/5 9:50,3.1,15,3.1,14,7.4,15
2017/1/5 9:51,3.2,15,3.2,14,9.1,16
2017/1/5 9:52,3.6,15,3.6,15,10.3,16
2017/1/5 9:53,3.5,16,3.6,15,5.1,16
2017/1/5 9:54,3.4,15,3.5,15,6,11
2017/1/5 9:55,3.3,15,3.4,15,6,11
2017/1/5 9:56,3.4,15,3.4,15,6.8,13
2017/1/5 9:57,3.8,14,3.8,14,8.3,13
2017/1/5 9:58,3.6,14,3.8,14,5.6,13
2017/1/5 9:59,3.6,15,3.6,14,4.5,16
2017/1/5 10:00,3.3,15,3.6,14,2.1,15
2017/1/5 10:01,3.1,14,3.3,14,3.6,12
2017/1/5 10:02,2.7,14,3.1,14,3.3,10
2017/1/5 10:03,2.6,14,2.6,14,5.6,15
2017/1/5 10:04,2.7,14,2.7,14,7.7,16
2017/1/5 10:05,2.7,15,2.8,14,6.7,15
2017/1/5 10:06,2.7,15,2.8,14,4.9,15
2017/1/5 10:07,2.5,15,2.7,14,6.2,15
2017/1/5 10:08,2.5,15,2.5,14,5.8,15
2017/1/5 10:09,2.5,15,2.5,15,4.3,1
2017/1/5 10:10,2.7,15,2.7,15,6.1,2
2017/1/5 10:11,2.6,16,2.7,14,2.7,3
2017/1/5 10:12,2.8,16,2.8,14,9.5,15
2017/1/5 10:13,3.2,16,3.3,16,11.7,16
2017/1/5 10:14,3.5,16,3.5,16,11,14
2017/1/5 10:15,3.8,15,3.8,15,9.9,15
2017/1/5 10:16,4.3,15,4.3,15,13,15
2017/1/5 10:17,4.6,16,4.6,16,13.2,1
2017/1/5 10:18,4.7,15,4.8,15,9.4,15
2017/1/5 10:19,4.7,15,4.7,15,5.6,2
2017/1/5 10:20,4.5,15,4.7,15,3.6,1
2017/1/5 10:21,4.9,15,4.9,15,8.2,15
2017/1/5 10:22,5.2,15,5.2,15,11.1,16
2017/1/5 10:23,5.3,15,5.3,15,14.8,15
2017/1/5 10:24,5.1,15,5.3,15,9.1,15
2017/1/5 10:25,5.1,15,5.2,15,12.1,13
2017/1/5 10:26,4.9,15,5.1,15,11.9,15
2017/1/5 10:27,5.1,15,5.1,15,12.7,16
2017/1/5 10:28,5.1,16,5.1,15,10.9,16
2017/1/5 10:29,5.1,15,5.1,15,3.8,13
2017/1/5 10:30,5.1,16,5.1,15,3,1
2017/1/5 10:31,5.2,16,5.2,15,11.5,15
2017/1/5 10:32,5.4,15,5.4,15,15.4,15
2017/1/5 10:33,5.4,15,5.5,15,14.7,14
2017/1/5 10:34,5.8,15,5.8,15,15.9,15
2017/1/5 10:35,5.8,15,5.9,15,12.2,16
2017/1/5 10:36,5.6,16,5.8,15,7.5,15
2017/1/5 10:37,5.6,15,5.7,15,10.7,15
2017/1/5 10:38,5.7,15,5.7,15,10.8,15
2017/1/5 10:39,6.2,15,6.2,15,13,16
2017/1/5 10:40,6.6,15,6.6,15,8.3,16
2017/1/5 10:41,6.3,15,6.6,15,6.5,15
2017/1/5 10:42,5.9,16,6.3,15,5.7,15
2017/1/5 10:43,5.6,16,5.8,15,8.1,16
2017/1/5 10:44,5.2,16,5.6,15,9.7,15
2017/1/5 10:45,5.1,16,5.2,15,9.8,15
2017/1/5 10:46,5.3,16,5.4,15,11.3,16
2017/1/5 10:47,5.3,16,5.4,15,9.9,15
2017/1/5 10:48,5.1,16,5.3,15,6.9,16
2017/1/5 10:49,4.6,16,5.1,15,4.7,16
2017/1/5 10:50,4.2,16,4.5,15,3.9,16
2017/1/5 10:51,4.1,16,4.2,16,4.5,15
2017/1/5 10:52,4.3,16,4.3,16,8.4,16
2017/1/5 10:53,4.1,16,4.4,16,7,1
2017/1/5 10:54,4.1,16,4.1,16,11.4,15
2017/1/5 10:55,4.3,16,4.3,16,9.3,16
2017/1/5 10:56,4,16,4.3,16,7.1,15
2017/1/5 10:57,3.7,16,3.9,16,7.7,14
2017/1/5 10:58,3.6,15,3.6,16,9.5,16
2017/1/5 10:59,3.8,15,3.8,16,8.5,14
2017/1/5 11:00,4.1,15,4.1,16,10.1,16
2017/1/5 11:01,4.2,15,4.2,16,8.4,15
2017/1/5 11:02,4.2,15,4.3,16,10.6,15
2017/1/5 11:03,4.6,15,4.6,15,12.4,15
2017/1/5 11:04,4.5,15,4.7,15,7.1,14
2017/1/5 11:05,4.1,15,4.4,15,5.7,15
2017/1/5 11:06,4.3,15,4.3,15,11.5,15
2017/1/5 11:07,4.7,15,4.7,15,13.5,16
2017/1/5 11:08,4.9,15,4.9,15,11.6,15
2017/1/5 11:09,4.7,16,4.9,15,4.1,1
2017/1/5 11:10,4.8,15,4.8,15,9,14
2017/1/5 11:11,4.7,15,4.8,15,3.7,15
2017/1/5 11:12,4.3,15,4.7,15,4.1,2
2017/1/5 11:13,3.8,16,4.3,15,3.7,16
2017/1/5 11:14,3.6,16,3.8,15,5.8,4
2017/1/5 11:15,3.6,16,3.7,15,3.9,7
2017/1/5 11:16,3.1,16,3.6,15,3.3,7
2017/1/5 11:17,2.6,16,3.1,15,3.1,14
2017/1/5 11:18,2.4,16,2.6,15,6.7,15
2017/1/5 11:19,2.2,15,2.4,16,3.6,15
2017/1/5 11:20,1.9,16,2.2,15,6.5,16
2017/1/5 11:21,2,1,2,15,5.8,1
2017/1/5 11:22,2.1,1,2.1,15,6.2,1